Tracking 30995 objects as of 5-Jul-2025
HD Live streaming from Space Station
objects crossing your sky now

ATLAS 5 CENTAUR DEB

Track ATLAS 5 CENTAUR DEB now!


NORAD ID: 46601
Int'l Code: 2018-079BZ
Perigee: 9,165.6 km
Apogee: 34,006.0 km
Inclination: 12.6 °
Period: 775.3 minutes
Semi major axis: 27956 km
RCS: Unknown
Launch date: October 17, 2018
Source: United States (US)
Launch site: AIR FORCE EASTERN TEST RANGE (AFETR)

Note: This is SATELLITE DEBRIS
Your satellite tracking list
Your tracking list is empty




NASA's NSSDC Master Catalog

Two Line Element Set (TLE):
1 46601U 18079BZ  25181.44740719 -.00000120  00000-0  00000+0 0  9998
2 46601  12.6022  66.4764 4442647 260.5430  48.0828  1.85726053 34965
Source of the keplerian elements: AFSPC